EHI
4 5 4 2 1 0 0 0 0 0 0 0 0 0 0 0 0 0 0 0 0 0 0 0 0 0 0 0 0 0 0 0 0 0 0 0 0 0 0 0 0 0 0
2 3 4 2 1 0 0 0 0 0 0 0 0 0 0 0 0 0 0 0 0 0 0 0 0 0 0 0 0 0 0 0 0 0 0 0 0 0 0 0 0 0 0
1 2 3 2 1 0 0 0 0 0 0 0 0 0 0 0 0 0 0 0 0 0 0 0 0 0 0 0 0 0 0 0 0 0 0 0 0 0 0 0 0 0 0
0 1 2 1 0 0 0 0 0 0 0 0 0 0 0 0 0 0 0 0 0 0 0 0 0 0 0 0 0 0 0 0 0 0 0 0 0 0 0 0 0 0 0
0 0 0 0 0 0 0 0 0 0 0 0 0 0 0 0 0 0 0 0 0 0 0 0 0 0 0 0 0 0 0 0 0 0 0 0 0 0 0 0 0 0 0
0 0 0 0 0 0 0 0 0 0 0 0 0 0 0 0 0 0 0 0 0 0 0 0 0 0 0 0 0 0 0 0 0 0 0 0 0 0 0 0 0 0 0
0 0 1 0 0 0 0 0 0 0 0 0 0 0 0 0 0 0 0 0 0 0 0 0 0 0 0 0 0 0 0 0 0 0 0 0 0 0 0 0 0 0 0
0 0 0 0 0 0 0 0 0 0 0 0 0 0 0 0 0 0 0 0 0 0 0 0 0 0 0 0 0 0 0 0 0 0 0 0 0 0 0 0 0 0 0
0 0 0 0 0 0 0 0 0 0 0 0 0 0 0 0 0 0 0 0 0 0 0 0 0 0 0 0 0 0 0 0 0 0 0 0 0 0 0 0 0 0 0
0 0 0 0 0 0 0 0 0 0 0 0 0 0 0 0 0 0 0 0 0 0 0 0 0 0 0 0 0 0 0 0 0 0 0 0 0 0 0 0 0 0 0
0 0 0 0 0 0 0 0 0 0 0 0 0 0 0 0 0 0 0 0 0 0 0 0 0 0 0 0 0 0 0 0 0 0 0 0 0 0 0 0 0 0 0
0 0 0 0 0 0 0 0 0 0 0 0 0 0 0 0 0 0 0 0 0 0 0 0 0 0 0 0 0 0 0 0 0 0 0 0 0 0 0 0 0 0 0
0 0 0 0 0 0 0 0 0 0 0 0 0 0 0 0 0 0 0 0 0 0 0 0 0 0 0 0 0 0 0 0 0 0 0 0 0 0 0 0 0 0 0
0 0 0 0 0 0 0 0 0 0 0 0 0 0 0 0 0 0 0 0 0 0 0 0 0 0 0 0 0 0 0 0 0 0 0 0 0 0 0 0 0 0 0
0 0 0 0 0 0 0 0 0 0 0 0 0 0 0 0 0 0 0 0 0 0 0 0 0 0 0 0 0 0 0 0 0 0 0 0 0 0 0 0 0 0 0
0 0 0 0 0 0 0 0 0 0 0 0 0 0 0 0 0 0 0 0 0 0 0 0 0 0 0 0 0 0 0 0 0 0 0 0 0 0 0 0 0 0 0
0 0 0 0 0 0 0 0 0 0 0 0 0 0 0 0 0 0 0 0 0 0 0 0 0 0 0 0 0 0 0 0 0 0 0 0 0 0 0 0 0 0 0
0 0 0 0 0 0 0 0 0 0 0 0 0 0 0 0 0 0 0 0 0 0 0 0 0 0 0 0 0 0 0 0 0 0 0 0 0 0 0 0 0 0 0
0 0 0 0 0 0 0 0 0 0 0 0 0 0 0 0 0 0 0 0 0 0 0 0 0 0 0 0 0 0 0 0 0 0 0 0 0 0 0 0 0 0 0
0 0 0 0 0 0 0 0 0 0 0 0 0 0 0 0 0 0 0 0 0 0 0 0 0 0 0 0 0 0 0 0 0 0 0 0 0 0 0 0 0 0 0
0 0 0 0 0 0 0 0 0 0 0 0 0 0 0 0 0 0 0 0 0 0 0 0 0 0 0 0 0 0 0 0 0 0 0 0 0 0 0 0 0 0 0
0 0 0 0 0 0 0 0 0 0 0 0 0 0 0 0 0 0 0 0 0 0 0 0 0 0 0 0 0 0 0 0 0 0 0 0 0 0 0 0 0 0 0
0 0 0 0 0 0 0 0 0 0 0 0 0 0 0 0 0 0 0 0 0 0 0 0 0 0 0 0 0 0 0 0 0 0 0 0 0 0 0 0 0 0 0
0 0 0 0 0 0 0 0 0 0 0 0 0 0 0 0 0 0 0 0 0 0 0 0 0 0 0 0 0 0 0 0 0 0 0 0 0 0 0 0 0 0 0
0 0 0 0 0 0 0 0 0 0 0 0 0 0 0 0 0 0 0 0 0 0 0 0 0 0 0 0 0 0 0 0 0 0 0 0 0 0 0 0 0 0 0
0 0 0 0 0 0 0 0 0 0 0 0 0 0 0 0 0 0 0 0 0 0 0 0 0 0 0 0 0 0 0 0 0 0 0 0 0 0 0 0 0 0 0
Wind_Speed
7 7 6 6 6 6 6 6 5 5 5 4 4 5 5 5 4 3 2 6 6 7 8 7 6 5 5 4 4 3 3 3 4 5 6 7 8 9 10 11 11 12 13
7 8 7 7 6 7 7 7 7 6 5 4 4 5 5 5 4 4 3 3 6 6 7 7 6 5 4 3 2 2 2 2 4 5 6 7 8 9 10 11 12 12 13
9 8 8 7 7 7 8 6 6 5 4 4 4 5 5 5 5 5 4 2 2 4 6 6 6 5 3 2 1 1 1 2 4 5 6 7 8 9 10 11 12 12 13
11 8 7 8 8 7 7 7 7 5 5 4 4 3 4 4 5 5 4 3 2 2 3 5 5 5 4 2 1 1 2 3 4 5 6 7 8 9 10 11 12 13 14
11 9 7 7 9 7 7 8 6 6 6 5 4 3 3 3 4 4 4 4 4 3 2 4 5 4 4 3 2 2 3 4 5 6 7 8 9 10 11 12 13 13 14
10 9 7 8 9 8 7 8 8 6 6 6 4 3 2 2 3 4 5 4 4 4 4 3 2 2 3 3 3 3 4 4 5 6 7 8 9 10 11 12 13 14 15
10 10 8 8 9 9 10 10 7 8 6 5 4 2 1 0 2 3 3 3 4 4 4 4 2 2 1 3 3 4 5 5 6 6 7 8 9 10 11 12 13 14 15
11 10 10 9 9 8 10 10 9 7 5 6 6 5 2 1 2 2 3 4 4 3 4 4 3 3 2 1 2 3 5 6 6 6 7 8 9 10 11 12 13 13 14
11 11 11 10 10 9 10 11 11 9 8 5 6 6 5 5 2 2 3 3 4 3 3 3 4 4 3 2 1 3 4 5 6 7 7 8 9 10 11 12 13 14 15
11 12 11 11 11 9 10 12 11 8 10 8 5 3 3 5 5 2 1 2 3 4 4 3 4 3 3 2 3 3 3 4 5 6 7 8 9 10 11 12 13 14 15
10 12 11 11 11 9 11 12 11 10 9 9 7 4 3 2 3 4 3 2 1 2 3 4 3 3 3 3 3 3 3 4 5 6 6 7 8 10 11 12 13 14 14
8 11 11 11 11 10 11 12 12 12 10 9 7 5 5 5 4 4 3 3 3 2 2 2 3 3 3 3 3 4 3 3 4 4 5 6 8 9 11 12 12 13 14
7 11 10 11 11 11 11 11 12 12 11 11 9 6 5 4 4 4 4 3 2 1 1 1 2 3 3 3 3 4 3 3 3 3 3 5 6 8 10 11 12 13 14
8 10 11 11 11 12 12 12 10 11 10 10 10 8 6 5 4 4 4 5 3 1 1 3 1 2 2 3 3 4 3 4 2 2 3 4 5 7 8 9 10 12 13
7 10 11 11 11 12 12 13 10 12 11 10 9 9 6 5 4 4 4 5 5 4 4 3 2 2 2 2 3 3 2 3 2 2 2 4 5 6 7 8 9 10 12
9 10 11 11 11 12 13 12 11 11 11 10 8 9 8 5 5 4 4 3 3 4 4 3 2 2 2 2 3 2 2 2 2 2 2 3 4 5 6 7 8 10 11
10 11 12 12 11 12 13 12 12 12 13 11 10 10 10 7 6 5 4 4 3 3 3 2 1 1 2 2 1 1 1 1 1 2 2 3 4 5 6 7 8 9 10
10 11 11 12 12 12 13 14 14 13 13 13 12 11 10 8 8 6 5 5 4 4 4 4 2 2 2 2 2 1 0 0 0 2 3 3 4 5 6 6 7 8 9
8 9 10 11 12 12 12 13 13 13 13 13 12 12 11 10 9 6 6 6 4 3 3 4 3 1 1 1 1 1 0 0 1 1 2 3 5 5 5 6 7 7 8
6 7 9 10 11 12 12 12 13 12 12 11 11 11 11 11 11 9 7 7 5 5 4 4 3 2 2 1 2 1 0 0 1 1 2 3 4 4 5 6 6 7 8
5 6 7 9 9 9 10 11 11 12 11 11 10 9 10 12 13 11 8 8 7 5 5 4 3 2 2 2 3 2 2 0 1 0 1 2 2 1 2 4 5 7 8
3 4 6 8 9 8 12 14 11 10 11 11 10 9 9 11 13 14 14 13 12 9 8 6 4 5 5 4 3 3 2 1 2 1 1 2 1 1 2 2 5 7 8
3 4 4 5 8 9 12 15 13 10 10 10 10 9 7 8 11 8 10 10 10 10 11 9 7 7 6 6 6 4 3 2 2 1 0 1 1 2 2 3 5 6 8
3 4 5 4 5 8 13 14 13 10 9 9 10 10 10 9 9 10 8 7 5 5 7 6 6 6 5 6 7 6 4 2 1 0 1 1 1 2 2 2 4 5 8
3 3 3 4 4 7 11 13 12 7 7 9 9 9 10 10 14 15 10 8 6 3 4 7 7 7 8 8 8 6 4 2 1 1 0 1 1 2 2 2 3 5 8
2 2 2 3 4 5 9 12 12 7 7 7 6 8 11 12 16 17 12 10 9 6 6 6 6 6 5 7 9 6 5 3 2 2 1 1 0 1 2 2 2 3 4
Wind_Direction
171 169 167 162 165 159 158 156 158 163 163 159 155 147 148 151 155 156 162 157 154 158 155 153 149 146 137 124 107 92 68 47 31 21 12 5 1 357 353 351 348 346 344
175 174 172 167 168 168 164 163 165 167 167 160 157 153 154 156 157 159 160 164 162 166 166 162 159 157 149 139 120 94 57 20 9 2 356 354 352 349 347 347 344 343 341
178 180 174 174 173 170 165 161 162 159 158 158 158 156 155 162 161 164 162 156 168 176 175 172 172 170 169 163 150 100 7 348 344 344 344 344 343 342 342 342 340 339 337
183 182 180 180 174 168 168 165 163 158 159 158 159 162 158 161 167 170 166 164 167 173 184 181 181 182 185 196 213 272 315 324 329 332 335 336 336 336 337 336 335 334 334
186 182 184 184 174 170 172 171 166 161 161 161 162 162 164 165 171 171 172 174 177 175 179 188 187 194 202 217 239 270 296 311 318 323 328 330 331 332 331 332 332 332 331
189 183 183 184 177 171 174 171 164 162 160 158 151 145 162 173 171 176 182 178 181 182 179 176 179 203 212 224 249 268 286 298 306 315 323 327 328 327 328 328 330 330 331
189 188 184 182 183 178 176 169 162 162 160 148 126 109 29 303 192 191 182 176 184 184 177 179 175 174 211 230 246 265 284 295 304 314 320 322 323 324 325 327 330 332 332
190 191 184 182 185 182 175 173 163 158 162 160 146 138 138 301 264 209 189 186 187 176 181 183 175 174 173 194 257 264 282 294 304 313 317 320 322 323 326 331 333 334 335
192 193 188 185 183 186 182 179 173 164 164 170 163 154 160 195 204 249 211 194 184 177 184 180 181 181 178 183 221 264 283 288 299 308 314 318 322 325 329 331 333 333 334
195 192 189 189 186 189 185 182 178 172 163 169 176 174 160 150 153 184 247 212 192 190 191 185 182 185 183 187 207 231 261 282 293 304 312 318 323 325 327 330 332 333 334
200 192 191 190 189 192 189 182 177 178 175 172 171 162 152 138 138 150 190 206 209 212 197 189 184 188 190 189 202 221 240 268 285 298 310 317 323 326 328 330 333 335 335
202 195 193 193 188 192 191 185 182 181 182 176 172 169 164 162 173 162 174 189 199 217 198 193 193 195 191 190 205 204 223 251 273 290 310 318 322 326 328 330 333 335 335
204 197 194 196 192 193 190 185 182 184 183 180 180 182 180 178 157 153 153 164 177 208 191 210 207 193 186 179 202 190 218 235 256 279 308 321 325 327 329 331 333 335 336
206 195 194 200 198 193 189 186 184 185 184 186 184 181 181 184 169 163 156 152 155 195 219 226 201 199 190 181 194 173 211 229 240 272 307 322 325 328 332 333 334 336 337
204 197 198 202 199 195 190 185 187 186 184 187 186 184 185 186 176 172 161 160 161 184 219 215 203 203 187 177 182 174 196 223 240 268 302 318 322 330 334 334 335 336 338
201 197 197 201 201 196 191 188 186 184 183 187 184 184 189 187 178 172 171 169 168 173 203 200 188 173 166 168 176 168 202 207 239 270 305 316 323 329 330 330 332 335 338
200 202 199 199 201 197 191 188 190 182 185 188 187 187 191 183 181 179 171 170 177 167 189 198 146 135 144 161 152 162 179 191 244 270 305 315 325 325 328 330 333 336 338
205 204 200 200 201 196 191 189 188 186 188 191 191 189 191 183 185 179 176 180 183 178 173 184 173 155 166 175 162 169 166 135 234 269 303 320 325 323 326 328 334 340 342
210 203 202 202 201 194 190 191 190 188 190 193 191 190 189 182 188 184 180 183 182 173 166 161 169 152 148 141 131 129 113 54 308 294 307 318 320 322 327 331 338 344 347
216 207 207 203 200 191 188 189 188 187 186 190 191 190 188 188 189 183 184 185 175 169 162 152 157 150 149 132 132 153 233 321 310 335 328 322 323 333 340 340 343 347 348
225 217 213 205 194 187 187 184 184 182 183 185 188 190 189 188 185 183 182 181 175 175 168 169 168 160 167 164 183 177 192 284 291 318 317 305 321 326 330 336 341 342 347
227 222 220 204 190 191 186 182 181 182 182 184 186 188 188 187 184 183 181 179 178 179 184 183 188 188 196 189 166 164 151 145 252 248 269 283 324 305 313 308 326 343 347
245 232 224 206 195 190 182 180 179 183 183 185 186 185 184 183 180 181 176 174 180 179 181 184 188 197 188 185 167 165 177 184 210 211 192 259 278 280 290 306 323 342 346
233 233 215 208 199 189 180 177 174 182 182 184 185 184 181 179 178 171 166 171 181 186 185 184 187 188 181 173 172 168 163 126 76 97 107 219 275 287 299 296 307 339 346
248 227 205 201 200 186 177 174 172 178 181 183 183 182 180 180 173 165 163 166 161 157 145 146 143 143 143 148 140 122 124 120 158 208 135 129 289 316 302 281 300 330 341
248 222 218 208 200 189 176 171 171 176 179 177 178 182 182 179 173 168 171 170 170 167 146 132 125 125 131 141 140 147 158 150 143 199 198 133 156 1 316 290 292 309 325